Location: PACMO
(41.3967°N, 90.3760°W)
Time: 13:52:02
(UTC-06:00)

Amateur Radio Satellites - All Passes

Search period start: 23 November 2014 13:22
Search period end: 24 November 2014 13:22
Location: PACMO, 41.3967°N, 90.3760°W

Satellite Date Start Highest point End Downlink Frequencies (MHz)
Time Altitude Azimuth
KKS-1 23 Nov 13:27:09 13:29:11 13° 91° (E) 13:31:12 437.445
Oscar 19 23 Nov 13:30:16 13:34:53 34° 263° (W) 13:39:33 437.125/150
AO-7 23 Nov 13:37:01 13:43:12 24° 53° (NE) 13:49:25 29.400- 29.500
HORYU 2 23 Nov 13:39:53 13:43:37 27° 68° (ENE) 13:47:21 437.375
TISAT 1 23 Nov 13:41:33 13:43:24 13° 297° (WNW) 13:45:15 437.305
SPROUT 23 Nov 13:41:51 13:44:11 15° 296° (WNW) 13:46:31 437.525
BEESAT 23 Nov 13:48:50 13:53:38 76° 285° (WNW) 13:58:24 436.000
SO-50 23 Nov 13:49:21 13:53:54 40° 244° (WSW) 13:58:28 436.795
AUBIESAT-1 23 Nov 13:55:13 14:00:02 55° 292° (WNW) 14:04:46 437.475
M-CUBED/EXP-1 PRIME 23 Nov 13:58:26 14:03:11 48° 293° (WNW) 14:07:52 437.505
ITAMSAT 1 23 Nov 14:16:52 14:21:31 33° 263° (W) 14:26:13 435.822/435.867
STARS 23 Nov 14:27:20 14:31:28 39° 98° (E) 14:35:34 437.465
Gurwin Techsat 1B 23 Nov 14:31:54 14:36:55 42° 262° (W) 14:41:58 435.225
YUBILEINY 23 Nov 14:39:06 14:47:34 57° 269° (W) 14:55:57 435.215
PHONESAT 2.4 23 Nov 14:41:55 14:43:18 12° 145° (SE) 14:44:40 2401.200-2431.200
ITUPSAT 1 23 Nov 14:43:30 14:47:18 24° 294° (WNW) 14:51:06 437.325
JAS-2 23 Nov 14:51:31 14:56:57 22° 57° (ENE) 15:02:30 435.910
RS-15 23 Nov 14:52:36 15:00:50 25° 102° (ESE) 15:08:59 29.354- 29.394
SWISSCUBE 23 Nov 14:56:12 14:59:15 17° 297° (WNW) 15:02:18 437.505
KKS-1 23 Nov 15:01:50 15:06:12 58° 287° (WNW) 15:10:33 437.445
VERMONT LUNAR 23 Nov 15:02:57 15:05:45 21° 152° (SSE) 15:08:34 437.305
O/OREOS (USA 219) 23 Nov 15:12:58 15:16:27 22° 57° (ENE) 15:19:56 437.305
HORYU 2 23 Nov 15:16:25 15:20:13 28° 264° (W) 15:24:02 437.375
AO-7 23 Nov 15:26:46 15:35:04 83° 253° (WSW) 15:43:26 29.400- 29.500
MOZHAYETS 4 23 Nov 15:48:10 15:50:01 12° 89° (E) 15:51:52
STARS 23 Nov 16:04:31 16:07:41 20° 295° (WNW) 16:10:50 437.465
MaSat-1 23 Nov 16:08:07 16:10:54 33° 299° (WNW) 16:13:28 437.345
PHONESAT 2.4 23 Nov 16:17:59 16:21:30 41° 160° (SSE) 16:25:02 2401.200-2431.200
JAS-2 23 Nov 16:33:23 16:40:56 88° 256° (WSW) 16:48:53 435.910
Cubesat XI-IV 23 Nov 16:34:21 16:38:54 29° 66° (ENE) 16:43:27 437.490
VERMONT LUNAR 23 Nov 16:40:18 16:43:53 61° 168° (SSE) 16:47:28 437.305
O/OREOS (USA 219) 23 Nov 16:51:51 16:55:59 38° 254° (WSW) 17:00:06 437.305
RS-15 23 Nov 17:00:50 17:11:50 83° 303° (WNW) 17:22:51 29.354- 29.394
CUTE-I 23 Nov 17:15:37 17:20:55 66° 73° (ENE) 17:26:15 437.470
MOZHAYETS 4 23 Nov 17:23:03 17:27:42 67° 285° (WNW) 17:32:19
AO-7 23 Nov 17:24:25 17:29:00 16° 271° (W) 17:33:37 29.400- 29.500
PHONESAT 2.4 23 Nov 17:56:26 18:00:10 78° 177° (S) 18:03:53 2401.200-2431.200
PRISM 23 Nov 17:57:56 18:02:06 53° 101° (E) 18:06:14 437.425
Cubesat XI-IV 23 Nov 18:13:53 18:18:50 37° 262° (W) 18:23:49 437.490
VERMONT LUNAR 23 Nov 18:18:40 18:22:19 77° 185° (S) 18:25:57 437.305
JAS-2 23 Nov 18:22:12 18:26:55 17° 274° (W) 18:31:47 435.910
STRAND 1 23 Nov 18:23:11 18:27:53 36° 97° (E) 18:32:32 437.568
GONETS M04 23 Nov 18:32:18 18:40:14 35° 70° (ENE) 18:48:04
SHINDAISAT 23 Nov 18:44:21 18:45:06 12° 51° (NE) 18:45:51 437.305
HO-68 23 Nov 18:48:02 18:53:55 28° 60° (ENE) 18:59:48 435.675
AIST 1 23 Nov 18:51:21 18:54:06 16° 86° (E) 18:56:50
CUBESAT XI-V 23 Nov 18:56:45 19:01:28 86° 103° (ESE) 19:06:06 437.345
CUTE-I 23 Nov 18:58:15 19:01:26 16° 269° (W) 19:04:39 437.470
CANX-2 23 Nov 18:58:30 19:00:48 15° 64° (ENE) 19:03:07 2200.000
COMPASS 1 23 Nov 19:10:19 19:12:15 13° 63° (ENE) 19:14:11 437.405
DOVE 4 23 Nov 19:14:57 19:16:32 12° 63° (ENE) 19:18:06 437.250
RS-15 23 Nov 19:16:52 19:26:04 30° 331° (NNW) 19:35:24 29.354- 29.394
PCSat 23 Nov 19:23:14 19:27:59 32° 110° (ESE) 19:32:46 145.827
CUTE 1.7 & AOD 2 23 Nov 19:31:55 19:35:35 30° 70° (ENE) 19:39:16 437.475
PRISM 23 Nov 19:34:55 19:37:13 14° 297° (WNW) 19:39:29 437.425
PHONESAT 2.4 23 Nov 19:35:14 19:38:54 57° 194° (SSW) 19:42:32 2401.200-2431.200
GOMX 1 23 Nov 19:42:02 19:46:14 30° 70° (ENE) 19:50:12 467.674
BEESAT 3 23 Nov 19:44:39 19:47:29 18° 111° (ESE) 19:50:22 437.485
UKube-1 23 Nov 19:47:59 19:50:34 16° 63° (ENE) 19:53:10 .
BRITE-PL 23 Nov 19:56:32 20:01:34 59° 74° (ENE) 20:06:13 437.365/2234.400
VERMONT LUNAR 23 Nov 19:57:15 20:00:38 37° 201° (SSW) 20:03:59 437.305
BEESAT 2 23 Nov 19:57:28 20:00:42 23° 112° (ESE) 20:03:59 435.950
Oscar 11 23 Nov 20:00:27 20:03:44 22° 67° (ENE) 20:07:01 145.826/435.025
CUBEBUG 2 23 Nov 20:01:14 20:03:10 13° 64° (ENE) 20:05:05 437.445
STRAND 1 23 Nov 20:02:38 20:06:55 28° 294° (WNW) 20:11:11 437.568
UWE-3 23 Nov 20:06:58 20:08:51 13° 64° (ENE) 20:10:44 435.000/436.395/437.385
SEEDS 23 Nov 20:07:44 20:11:53 66° 75° (ENE) 20:16:03 437.485
CINEMA 3 23 Nov 20:07:55 20:11:29 24° 69° (ENE) 20:14:57 145.822/145.860
DX 1 23 Nov 20:19:20 20:23:16 33° 69° (ENE) 20:27:12 434.975-435.025
AIST 2 23 Nov 20:20:33 20:23:39 20° 111° (ESE) 20:26:49 435.215
AIST 1 23 Nov 20:27:13 20:31:22 42° 282° (WNW) 20:35:35
GONETS M04 23 Nov 20:28:53 20:37:20 52° 271° (W) 20:45:42
AAUSAT CUBESAT 2 23 Nov 20:29:50 20:33:59 88° 77° (ENE) 20:38:10 437.432
CANX-2 23 Nov 20:32:13 20:36:19 51° 260° (W) 20:40:27 2200.000
HO-68 23 Nov 20:34:05 20:41:09 60° 258° (WSW) 20:48:16 435.675
CUBESAT XI-V 23 Nov 20:37:00 20:38:10 11° 300° (WNW) 20:39:20 437.345
VELOX 1 23 Nov 20:38:55 20:41:54 18° 64° (ENE) 20:44:53 145.980
COMPASS 1 23 Nov 20:43:25 20:47:30 56° 260° (W) 20:51:38 437.405
ZACube-1 23 Nov 20:45:52 20:49:29 28° 69° (ENE) 20:53:04 437.345
DELFI C3 23 Nov 20:48:07 20:52:07 59° 74° (ENE) 20:56:09 145.870
DOVE 4 23 Nov 20:49:06 20:53:49 74° 258° (WSW) 20:58:16 437.250
HUMSAT D 23 Nov 20:49:08 20:52:02 19° 66° (ENE) 20:54:56 437.325/437.525
50 SAT 23 Nov 20:55:14 20:57:58 18° 66° (ENE) 21:00:42 437.505
AISAT 23 Nov 21:02:26 21:06:22 31° 69° (ENE) 21:10:18 437.250
PCSat 23 Nov 21:06:18 21:11:18 37° 308° (NW) 21:16:21 145.827
CUTE 1.7 & AOD 2 23 Nov 21:08:11 21:11:31 23° 266° (W) 21:14:53 437.475
PHONESAT 2.4 23 Nov 21:14:35 21:17:17 19° 210° (SSW) 21:19:58 2401.200-2431.200
GOMX 1 23 Nov 21:20:09 21:24:19 28° 264° (W) 21:28:16 467.674
FUNcube-1 23 Nov 21:20:58 21:25:10 70° 75° (ENE) 21:29:20 145.935
BEESAT 3 23 Nov 21:21:29 21:25:24 42° 308° (NW) 21:29:23 437.485
UKube-1 23 Nov 21:22:05 21:26:19 51° 260° (W) 21:30:35 .
CUBEBUG 1 23 Nov 21:25:44 21:28:55 20° 65° (ENE) 21:32:07 437.445
UNISAT 6 23 Nov 21:27:21 21:28:13 11° 90° (E) 21:29:06 437.425
BEESAT 2 23 Nov 21:34:59 21:38:48 35° 310° (NW) 21:42:40 435.950
CUBEBUG 2 23 Nov 21:35:11 21:39:26 58° 259° (W) 21:43:36 437.445
RS-15 23 Nov 21:35:42 21:43:29 21° 6° (N) 21:51:25 29.354- 29.394
Oscar 11 23 Nov 21:35:48 21:39:42 33° 263° (W) 21:43:38 145.826/435.025
BRITE-PL 23 Nov 21:37:21 21:40:19 16° 268° (W) 21:43:11 437.365/2234.400
UWE-3 23 Nov 21:40:44 21:44:57 58° 259° (W) 21:49:06 435.000/436.395/437.385
CINEMA 3 23 Nov 21:44:41 21:48:35 30° 263° (W) 21:52:23 145.822/145.860
QB50P1 23 Nov 21:45:22 21:46:09 10° 90° (E) 21:46:56 145.935-145.965
SEEDS 23 Nov 21:47:46 21:48:09 10° 271° (W) 21:48:32 437.485
ANTELSAT 23 Nov 21:53:34 21:56:59 21° 94° (E) 22:00:26 437.575/2403.000
DX 1 23 Nov 21:56:07 21:59:33 22° 265° (W) 22:03:00 434.975-435.025
AIST 2 23 Nov 21:58:00 22:02:00 41° 308° (NW) 22:06:06 435.215
ESTCUBE 1 23 Nov 22:03:18 22:07:41 50° 72° (ENE) 22:12:06 437.505/2401.250
BUGSAT 1 23 Nov 22:07:46 22:10:14 16° 92° (E) 22:12:41 437.445
POPSAT HIP 1 23 Nov 22:07:47 22:10:53 20° 94° (E) 22:13:57 437.405
VELOX 1 23 Nov 22:13:49 22:18:08 46° 261° (W) 22:22:28 145.980
ZACube-1 23 Nov 22:22:25 22:25:51 24° 265° (W) 22:29:16 437.345
HUMSAT D 23 Nov 22:23:47 22:27:37 36° 262° (W) 22:31:26 437.325/437.525
DELFI C3 23 Nov 22:26:49 22:27:48 11° 270° (W) 22:28:48 145.870
50 SAT 23 Nov 22:29:17 22:33:02 36° 262° (W) 22:36:47 437.505
POLYITAN 1 23 Nov 22:39:03 22:43:06 44° 99° (E) 22:47:09 437.675
AISAT 23 Nov 22:39:17 22:43:00 25° 265° (W) 22:46:43 437.250
QB50P2 23 Nov 22:42:04 22:46:11 48° 100° (E) 22:50:16 145.880/145.840
TIGRISAT 23 Nov 22:48:46 22:53:11 83° 103° (ESE) 22:57:41 435.000
DUCHIFAT 1 23 Nov 22:49:44 22:53:54 58° 101° (E) 22:58:02 145.980
TISAT 1 23 Nov 22:56:39 23:00:44 46° 72° (ENE) 23:04:50 437.305
SPROUT 23 Nov 22:58:46 23:02:50 41° 72° (ENE) 23:06:55 437.525
CUBEBUG 1 23 Nov 23:00:49 23:05:01 40° 262° (W) 23:09:14 437.445
UNISAT 6 23 Nov 23:01:03 23:05:27 71° 285° (WNW) 23:09:57 437.425
NANOSAT C BR1 23 Nov 23:08:42 23:12:56 83° 284° (WNW) 23:17:08 145.865
AUBIESAT-1 23 Nov 23:11:18 23:14:22 21° 59° (ENE) 23:17:38 437.475
M-CUBED/EXP-1 PRIME 23 Nov 23:14:31 23:17:48 24° 61° (ENE) 23:21:19 437.505
QB50P1 23 Nov 23:18:17 23:22:29 65° 286° (WNW) 23:26:39 145.935-145.965
BEESAT 23 Nov 23:20:19 23:22:56 15° 61° (ENE) 23:25:34 436.000
ANTELSAT 23 Nov 23:29:50 23:33:51 35° 290° (WNW) 23:37:57 437.575/2403.000
ESTCUBE 1 23 Nov 23:42:04 23:44:50 16° 268° (W) 23:47:37 437.505/2401.250
BUGSAT 1 23 Nov 23:42:05 23:45:57 41° 288° (WNW) 23:49:45 437.445
POPSAT HIP 1 23 Nov 23:43:03 23:46:53 34° 290° (WNW) 23:50:41 437.405
CUSAT 1 23 Nov 23:43:48 23:48:06 54° 80° (E) 23:53:53 437.405
RS-15 23 Nov 23:49:46 00:00:07 41° 40° (NE) 00:10:48 29.354- 29.394
DANDE 23 Nov 23:58:57 00:03:08 64° 80° (E) 00:08:50 436.750
ISS 24 Nov 00:09:36 00:12:51 63° 141° (SE) 00:16:07 145.825
ITUPSAT 1 24 Nov 00:12:08 00:16:42 45° 71° (ENE) 00:21:17 437.325
MaSat-1 24 Nov 00:13:17 00:14:28 13° 56° (NE) 00:15:38 437.345
POLYITAN 1 24 Nov 00:16:04 00:18:43 16° 295° (WNW) 00:21:21 437.675
QB50P2 24 Nov 00:19:15 00:21:42 15° 296° (WNW) 00:24:10 145.880/145.840
SWISSCUBE 24 Nov 00:23:50 00:28:35 65° 74° (ENE) 00:33:22 437.505
KKS-1 24 Nov 00:26:15 00:28:23 13° 62° (ENE) 00:30:31 437.445
DUCHIFAT 1 24 Nov 00:27:22 00:29:17 13° 297° (WNW) 00:31:12 145.980
TIGRISAT 24 Nov 00:28:51 00:29:18 10° 299° (WNW) 00:29:45 435.000
TISAT 1 24 Nov 00:34:16 00:36:49 15° 268° (W) 00:39:21 437.305
SPROUT 24 Nov 00:36:14 00:39:06 17° 267° (W) 00:41:59 437.525
AUBIESAT-1 24 Nov 00:45:27 00:49:06 36° 259° (WSW) 00:53:07 437.475
M-CUBED/EXP-1 PRIME 24 Nov 00:49:13 00:52:43 30° 260° (W) 00:56:31 437.505
BEESAT 24 Nov 00:55:28 01:00:13 66° 258° (WSW) 01:05:01 436.000
STARS 24 Nov 01:24:48 01:28:49 36° 70° (ENE) 01:32:51 437.465
CUSAT 1 24 Nov 01:28:19 01:31:11 16° 267° (W) 01:34:30 437.405
Oscar 19 24 Nov 01:41:02 01:46:14 83° 104° (ESE) 01:51:24 437.125/150
YUBILEINY 24 Nov 01:44:01 01:51:44 36° 85° (E) 01:59:26 435.215
DANDE 24 Nov 01:44:34 01:46:34 13° 268° (W) 01:48:46 436.750
ISS 24 Nov 01:47:01 01:49:44 23° 339° (NNW) 01:52:28 145.825
MaSat-1 24 Nov 01:47:42 01:48:58 13° 251° (WSW) 01:50:15 437.345
ITUPSAT 1 24 Nov 01:51:20 01:54:47 20° 267° (W) 01:58:16 437.325
KKS-1 24 Nov 02:00:05 02:04:30 64° 259° (WSW) 02:08:56 437.445
RS-15 24 Nov 02:02:10 02:13:18 70° 244° (WSW) 02:24:55 29.354- 29.394
SWISSCUBE 24 Nov 02:04:34 02:06:53 13° 270° (W) 02:09:12 437.505
ITAMSAT 1 24 Nov 02:28:57 02:34:10 89° 104° (ESE) 02:39:20 435.822/435.867
Gurwin Techsat 1B 24 Nov 02:47:38 02:52:59 77° 103° (ESE) 02:58:17 435.225
MOZHAYETS 4 24 Nov 02:51:00 02:52:59 13° 61° (ENE) 02:54:58
STARS 24 Nov 03:02:05 03:05:24 21° 266° (W) 03:08:44 437.465
HORYU 2 24 Nov 03:07:11 03:11:36 54° 101° (E) 03:16:00 437.375
Oscar 19 24 Nov 03:22:28 03:24:52 13° 301° (WNW) 03:27:15 437.125/150
ISS 24 Nov 03:25:28 03:27:16 14° 360° (N) 03:29:05 145.825
AO-7 24 Nov 03:28:43 03:36:08 34° 97° (E) 03:43:29 29.400- 29.500
YUBILEINY 24 Nov 03:39:44 03:48:13 50° 285° (WNW) 03:56:43 435.215
JAS-2 24 Nov 03:46:49 03:50:12 14° 83° (E) 03:53:24 435.910
SO-50 24 Nov 04:03:47 04:08:14 67° 120° (ESE) 04:12:52 436.795
BEESAT 3 24 Nov 04:04:06 04:06:44 16° 42° (NE) 04:09:21 437.485
PCSat 24 Nov 04:10:42 04:15:24 29° 49° (NE) 04:20:05 145.827
ITAMSAT 1 24 Nov 04:10:47 04:12:53 13° 302° (WNW) 04:15:00 435.822/435.867
BEESAT 2 24 Nov 04:17:26 04:20:28 19° 44° (NE) 04:23:28 435.950
RS-15 24 Nov 04:18:13 04:23:34 15° 263° (W) 04:29:03 29.354- 29.394
MOZHAYETS 4 24 Nov 04:25:02 04:29:36 72° 258° (WSW) 04:34:13
Gurwin Techsat 1B 24 Nov 04:29:24 04:32:16 15° 300° (WNW) 04:35:08 435.225
AIST 2 24 Nov 04:42:05 04:45:04 18° 43° (NE) 04:48:01 435.215
HORYU 2 24 Nov 04:45:12 04:47:50 16° 297° (WNW) 04:50:29 437.375
PRISM 24 Nov 04:48:59 04:52:55 40° 71° (ENE) 04:56:53 437.425
ISS 24 Nov 05:02:09 05:04:50 22° 20° (NNE) 05:07:30 145.825
AO-7 24 Nov 05:21:06 05:29:11 56° 295° (WNW) 05:37:15 29.400- 29.500
O/OREOS (USA 219) 24 Nov 05:25:35 05:29:07 23° 102° (ESE) 05:32:39 437.305
JAS-2 24 Nov 05:29:09 05:36:27 87° 104° (ESE) 05:42:49 435.910
CUTE-I 24 Nov 05:33:22 05:37:45 26° 95° (E) 05:42:05 437.470
STRAND 1 24 Nov 05:39:01 05:44:00 53° 71° (ENE) 05:49:01 437.568
BEESAT 3 24 Nov 05:41:14 05:45:25 67° 240° (WSW) 05:49:31 437.485
SO-50 24 Nov 05:46:05 05:49:17 18° 320° (NW) 05:52:33 436.795
PCSat 24 Nov 05:53:50 05:58:58 44° 248° (WSW) 06:04:04 145.827
BEESAT 2 24 Nov 05:54:57 05:59:04 53° 242° (WSW) 06:03:07 435.950
CUBESAT XI-V 24 Nov 06:00:05 06:04:48 83° 76° (ENE) 06:09:33 437.345
AIST 2 24 Nov 06:19:50 06:24:05 60° 241° (WSW) 06:28:15 435.215
PRISM 24 Nov 06:25:53 06:28:39 17° 267° (W) 06:31:25 437.425
Cubesat XI-IV 24 Nov 06:30:37 06:35:59 87° 104° (ESE) 06:41:18 437.490
AIST 1 24 Nov 06:34:23 06:38:37 46° 78° (ENE) 06:42:48
ISS 24 Nov 06:38:28 06:41:45 71° 218° (SW) 06:45:02 145.825
O/OREOS (USA 219) 24 Nov 07:04:14 07:08:19 34° 299° (WNW) 07:12:24 437.305
CUTE-I 24 Nov 07:12:58 07:17:55 41° 291° (WNW) 07:22:51 437.470
JAS-2 24 Nov 07:15:41 07:20:23 19° 305° (NW) 07:24:47 435.910
AO-7 24 Nov 07:16:45 07:20:09 13° 316° (NW) 07:23:32 29.400- 29.500
STRAND 1 24 Nov 07:19:57 07:23:29 19° 268° (W) 07:27:03 437.568
GONETS M04 24 Nov 07:33:30 07:41:26 40° 86° (E) 07:49:24
SEEDS 24 Nov 07:54:55 07:56:13 11° 90° (E) 07:57:31 437.485
HO-68 24 Nov 08:02:17 08:08:11 27° 94° (E) 08:14:02 435.675
BRITE-PL 24 Nov 08:02:49 08:05:10 15° 92° (E) 08:07:31 437.365/2234.400
Cubesat XI-IV 24 Nov 08:12:52 08:15:19 13° 302° (WNW) 08:17:45 437.490
AIST 1 24 Nov 08:13:24 08:15:50 15° 275° (W) 08:18:16
AAUSAT CUBESAT 2 24 Nov 08:15:00 08:17:19 14° 91° (E) 08:19:38 437.432
CANX-2 24 Nov 08:18:05 08:21:43 26° 95° (E) 08:25:21 2200.000
COMPASS 1 24 Nov 08:28:00 08:31:23 23° 94° (E) 08:34:45 437.405
DOVE 4 24 Nov 08:48:42 08:52:13 26° 96° (E) 08:55:47 437.250
CUTE 1.7 & AOD 2 24 Nov 08:52:35 08:56:50 59° 100° (E) 09:01:04 437.475
ANTELSAT 24 Nov 08:53:47 08:56:51 19° 66° (ENE) 08:59:54 437.575/2403.000
BUGSAT 1 24 Nov 08:59:15 09:01:15 13° 63° (ENE) 09:03:14 437.445
POPSAT HIP 1 24 Nov 09:01:49 09:04:31 17° 65° (ENE) 09:07:14 437.405
UKube-1 24 Nov 09:10:25 09:14:02 25° 96° (E) 09:17:38 .
FUNcube-1 24 Nov 09:11:20 09:13:17 13° 91° (E) 09:15:14 145.935
GOMX 1 24 Nov 09:21:08 09:25:18 83° 102° (ESE) 09:29:32 467.674
Oscar 11 24 Nov 09:22:50 09:26:58 41° 98° (E) 09:31:04 145.826/435.025
CUBEBUG 2 24 Nov 09:26:39 09:30:15 26° 96° (E) 09:33:53 437.445
SEEDS 24 Nov 09:28:14 09:32:27 62° 285° (WNW) 09:36:40 437.485
GONETS M04 24 Nov 09:29:44 09:38:04 46° 286° (WNW) 09:46:31
UWE-3 24 Nov 09:31:05 09:34:38 26° 96° (E) 09:38:13 435.000/436.395/437.385
POLYITAN 1 24 Nov 09:32:45 09:36:38 35° 70° (ENE) 09:40:31 437.675
QB50P2 24 Nov 09:35:31 09:39:27 38° 71° (ENE) 09:43:24 145.880/145.840
CINEMA 3 24 Nov 09:38:50 09:42:59 58° 101° (E) 09:47:14 145.822/145.860
BRITE-PL 24 Nov 09:40:01 09:43:57 42° 288° (WNW) 09:47:52 437.365/2234.400
DUCHIFAT 1 24 Nov 09:42:44 09:46:47 44° 72° (ENE) 09:50:50 145.980
DX 1 24 Nov 09:43:29 09:47:48 61° 101° (ESE) 09:52:05 434.975-435.025
TIGRISAT 24 Nov 09:47:58 09:52:13 74° 75° (ENE) 09:56:28 435.000
AAUSAT CUBESAT 2 24 Nov 09:49:11 09:53:16 48° 287° (WNW) 09:57:20 437.432
HO-68 24 Nov 09:49:14 09:56:15 58° 292° (WNW) 10:03:13 435.675
CANX-2 24 Nov 09:54:00 09:57:36 27° 291° (WNW) 10:01:12 2200.000
ESTCUBE 1 24 Nov 09:59:19 10:00:00 10° 89° (E) 10:00:42 437.505/2401.250
UNISAT 6 24 Nov 10:00:30 10:04:47 79° 258° (WSW) 10:09:04 437.425
NANOSAT C BR1 24 Nov 10:01:36 10:05:51 74° 75° (ENE) 10:10:06 145.865
COMPASS 1 24 Nov 10:03:24 10:07:07 30° 290° (WNW) 10:10:50 437.405
DELFI C3 24 Nov 10:04:09 10:08:18 77° 284° (WNW) 10:12:26 145.870
VELOX 1 24 Nov 10:04:54 10:08:53 32° 97° (E) 10:12:49 145.980
HUMSAT D 24 Nov 10:08:16 10:12:04 34° 97° (E) 10:15:53 437.325/437.525
ZACube-1 24 Nov 10:10:08 10:14:19 60° 101° (E) 10:18:33 437.345
50 SAT 24 Nov 10:10:17 10:13:51 29° 96° (E) 10:17:24 437.505
QB50P1 24 Nov 10:11:12 10:15:28 86° 257° (WSW) 10:19:45 145.935-145.965
DOVE 4 24 Nov 10:26:32 10:29:57 25° 291° (WNW) 10:33:25 437.250
ANTELSAT 24 Nov 10:29:27 10:33:25 37° 262° (W) 10:37:23 437.575/2403.000
AISAT 24 Nov 10:29:39 10:34:03 62° 101° (E) 10:38:25 437.250
CUTE 1.7 & AOD 2 24 Nov 10:30:15 10:32:16 13° 297° (WNW) 10:34:17 437.475
BUGSAT 1 24 Nov 10:32:03 10:36:15 59° 259° (W) 10:40:28 437.445
POPSAT HIP 1 24 Nov 10:36:00 10:40:05 44° 261° (W) 10:44:11 437.405
FUNcube-1 24 Nov 10:45:50 10:49:56 53° 286° (WNW) 10:54:07 145.935
UKube-1 24 Nov 10:46:26 10:50:10 28° 292° (WNW) 10:53:53 .
CUBEBUG 1 24 Nov 10:50:00 10:54:02 35° 97° (E) 10:58:01 437.445
SO-50 24 Nov 10:56:27 10:58:29 12° 35° (NE) 11:00:31 436.795
Oscar 11 24 Nov 10:59:50 11:02:49 19° 294° (WNW) 11:05:49 145.826/435.025
CUBEBUG 2 24 Nov 11:03:23 11:06:54 26° 291° (WNW) 11:10:27 437.445
UWE-3 24 Nov 11:07:35 11:11:08 27° 291° (WNW) 11:14:44 435.000/436.395/437.385
POLYITAN 1 24 Nov 11:09:34 11:12:41 20° 266° (W) 11:15:49 437.675
QB50P2 24 Nov 11:12:32 11:15:31 18° 267° (W) 11:18:30 145.880/145.840
CINEMA 3 24 Nov 11:17:54 11:19:46 13° 296° (WNW) 11:21:38 145.822/145.860
DUCHIFAT 1 24 Nov 11:20:18 11:22:53 16° 268° (W) 11:25:28 145.980
DX 1 24 Nov 11:21:27 11:23:31 13° 298° (WNW) 11:25:35 434.975-435.025
Oscar 19 24 Nov 11:21:28 11:24:25 16° 61° (ENE) 11:27:23 437.125/150
ESTCUBE 1 24 Nov 11:32:51 11:37:24 75° 285° (WNW) 11:41:54 437.505/2401.250
HO-68 24 Nov 11:40:16 11:42:27 12° 312° (NW) 11:44:38 435.675
VELOX 1 24 Nov 11:41:47 11:45:19 24° 293° (WNW) 11:48:50 145.980
HUMSAT D 24 Nov 11:44:37 11:47:41 20° 293° (WNW) 11:50:46 437.325/437.525
50 SAT 24 Nov 11:45:52 11:49:02 22° 292° (WNW) 11:52:11 437.505
ZACube-1 24 Nov 11:48:24 11:50:13 13° 297° (WNW) 11:52:03 437.345
YUBILEINY 24 Nov 11:54:33 11:59:54 17° 60° (ENE) 12:05:12 435.215
AISAT 24 Nov 12:08:00 12:10:10 14° 298° (WNW) 12:12:21 437.250
ITAMSAT 1 24 Nov 12:09:50 12:13:17 18° 62° (ENE) 12:16:43 435.822/435.867
ITUPSAT 1 24 Nov 12:15:16 12:16:48 11° 89° (E) 12:18:19 437.325
TISAT 1 24 Nov 12:17:24 12:21:38 86° 103° (ESE) 12:25:50 437.305
SPROUT 24 Nov 12:21:23 12:25:41 83° 103° (ESE) 12:29:57 437.525
SWISSCUBE 24 Nov 12:25:38 12:28:42 17° 92° (E) 12:31:45 437.505
CUBEBUG 1 24 Nov 12:26:54 12:30:11 21° 294° (WNW) 12:33:27 437.445
AUBIESAT-1 24 Nov 12:28:18 12:31:54 20° 97° (E) 12:35:26 437.475
Gurwin Techsat 1B 24 Nov 12:31:33 12:34:48 17° 61° (ENE) 12:38:03 435.225
M-CUBED/EXP-1 PRIME 24 Nov 12:31:55 12:35:54 24° 98° (E) 12:39:48 437.505
SO-50 24 Nov 12:35:09 12:40:00 63° 54° (NE) 12:44:51 436.795
AO-7 24 Nov 12:43:06 12:44:44 11° 41° (NE) 12:46:23 29.400- 29.500
BEESAT 24 Nov 12:56:11 13:00:28 31° 97° (E) 13:04:42 436.000
Oscar 19 24 Nov 12:58:06 13:03:10 69° 258° (WSW) 13:08:18 437.125/150
CUSAT 1 24 Nov 12:58:44 13:01:31 59° 98° (E) 13:04:05 437.405
